This is the latest recevied weather packets stored in our database for station/object KCDH. If no packets are shown the sender has not sent any weather packets the latest 10 day(s).
| Time | Temp. | Humidity | Pressure | Rain* | Wind** | Luminosity | Snow |
|---|---|---|---|---|---|---|---|
| 1787786609 | 35.56° C | 39% | 1010.8 hPa | - | - | - | - |
| 1787786006 | 36.67° C | 37% | 1010.8 hPa | - | - | - | - |
| 1787785407 | 36.67° C | 37% | 1010.8 hPa | - | - | - | - |
| 1787784812 | 35.56° C | 41% | 1011.2 hPa | - | - | - | - |
| 1787784207 | 35.56° C | 41% | 1011.2 hPa | - | - | - | - |
| 1787783607 | 35.56° C | 39% | 1011.2 hPa | - | - | - | - |
| 1787783007 | 35.56° C | 39% | 1011.2 hPa | - | - | - | - |
| 1787782405 | 35.56° C | 41% | 1011.2 hPa | - | - | - | - |
| 1787781803 | 35.56° C | 41% | 1011.2 hPa | - | - | - | - |
| 1787781204 | 35° C | 44% | 1011.5 hPa | - | - | - | - |
| 1787780606 | 35° C | 44% | 1011.5 hPa | - | - | - | - |
| 1787780007 | 35° C | 47% | 1011.9 hPa | - | - | - | - |
| 1787779405 | 35° C | 47% | 1011.9 hPa | - | - | - | - |
| 1787778807 | 35° C | 47% | 1012.5 hPa | - | - | - | - |
| 1787778207 | 35° C | 47% | 1012.5 hPa | - | - | - | - |
| 1787777607 | 33.89° C | 52% | 1012.9 hPa | - | - | - | - |
| 1787777010 | 33.89° C | 52% | 1012.9 hPa | - | - | - | - |
| 1787776406 | 33.89° C | 49% | 1013.2 hPa | - | - | - | - |
| 1787775805 | 33.89° C | 49% | 1013.2 hPa | - | - | - | - |
| 1787775209 | 32.78° C | 52% | 1013.5 hPa | - | - | - | - |
| 1787774607 | 32.78° C | 52% | 1013.5 hPa | - | - | - | - |
| 1787774009 | 32.78° C | 52% | 1013.9 hPa | - | - | - | - |
| 1787773406 | 32.78° C | 52% | 1013.9 hPa | - | - | - | - |
| 1787772807 | 31.67° C | 55% | 1013.9 hPa | - | - | - | - |
| 1787772207 | 31.67° C | 55% | 1013.9 hPa | - | - | - | - |
* Rain since midnight (hover to see other rain measurements)
** Current wind speed in m/s (hover to see current wind gust speed)